Weather in Vinzili

Russia / Tyumen Oblast     56°57′22″N   65°45′47″E
temp.,
°C
wind,
m/s
gust,
m/s
humid.,
%
clouds,
%
prec.,
mm/h
press.,
hPa
HPBL,
m
14 june, mon
mon1423:00+18sw226047 0.0 102317
02:00+16ssw22646 0.0 102321
05:00+15ssw23715 0.0 102363
08:00+23ssw35475 0.0 1023422
11:00+28ssw46290 0.0 10222032
14:00+29sw67254 0.0 10212861
17:00+29sw672912 0.0 10202655
20:00+24sw494450 0.0 1019425
15 june, tue
tue1523:00+20ssw3106162 0.0 1018212
02:00+18sw31062100 0.1 1018224
05:00+16sw31186100 1.4 1017200
08:00+21sw31060100 0.0 1017313
11:00+28sw5733100 0.0 1015992
14:00+31sw5829100 0.0 10142556
17:00+29w61134100 0.0 10132350
20:00+26wsw51148100 0.0 10121020
16 june, wed
wed1623:00+18wsw2482100 0.8 101381
02:00+17wsw2787100 0.1 1013170
05:00+17w28885 0.1 1014190
08:00+23w35585 0.0 1014438
11:00+29w493630 0.0 10132315
14:00+26wnw4648100 0.0 10121329
17:00+27nw46489 0.0 10111304
20:00+25ne116126 0.0 101112
17 june, thu
thu1723:00+20s22775 0.3 101120
02:00+19s228171 0.1 101018
05:00+18wsw388233 0.1 1009190
08:00+24wsw35545 0.0 1008493
11:00+29sw35375 0.0 10061452
14:00+31sw563314 0.0 10052188
17:00+31ssw46305 0.0 10022198
20:00+26sw2453100 0.0 1002136
18 june, fri
fri1823:00+17ese1294100 6.8 100359
02:00+16nnw5996100 0.9 1003697
05:00+11nnw61290100 1.1 1006682
08:00+10nnw7137699 0.2 1008761
11:00+14n71052100 0.2 10091378
14:00+13nnw81152100 0.0 10101386
17:00+11nnw71560100 0.0 10121258
20:00+11n514485 0.0 10131147